Find Starlink 11705

NORAD ID: 63758 Int'l Des: 2025-089 Owner: SPXS Country: US Constellation: starlink operational
LEOCIRCULAR

实时位置

正在加载3D地球...

关于 Starlink 11705

正在加载描述...

即将过境

Passes for default location (London). Set your location on the main map for personalized predictions.

高度历史

Loading altitude history...

两行轨道根数

1 63758U 25089H 26127.75851500 .00139375 00000-0 10707-2 0 9997
2 63758 42.9969 296.3600 0000422 213.1526 146.9315 15.70858718 59377
Epoch: May 7, 2026 • Age: 5 hours

当前状态

高度 355.1 km
速度 7.70 km/s
星下点 10.25°N, 114.11°W
发射日期 Apr 29, 2025
运行时间 1 years
类型 internet

技术详情

分类 Payload
质量 960.00 kg
干质量 910.00 kg
总质量 960.00 kg
长度 0.30 m
直径 4.10 m
跨度 29.00 m
形状 Box + pan
制造商 SPXS
平台类型 Starlink V2MD
阶段状态 In Orbit
所有者/国家 SPXS/US

Most Searched